Santiago, Chile

12:49 AM -03 on October 22, 2018 (GMT -0300)
Arturo Merino Benitez International

Weather History for SCEL - February, 2018

Change the Weather History Date:

Thursday, February 1, 2018

  Actual Average Record
Temperature  
Mean Temperature 74 °F -  
Max Temperature 91 °F 82 °F 93 °F (2002)
Min Temperature 58 °F 51 °F 51 °F (1997)
Cooling Degree Days 10    
Growing Degree Days 24 (Base 50)    
Moisture  
Dew Point 47 °F    
Average Humidity 38    
Maximum Humidity 59    
Minimum Humidity 14    
Precipitation  
Precipitation 0.00 in - - ()
Sea Level Pressure  
Sea Level Pressure 29.83 in    
Wind  
Wind Speed 7 mph ()    
Max Wind Speed 18 mph    
Max Gust Speed -    
Visibility 6.0 miles    
Events      
Averages and records for this station are not official NWS values.
T = Trace of Precipitation, MM = Missing Value Source: Averaged Metar Reports

Daily Weather History Graph

Daily Weather History Graph

Search for Another Location

Airport or City:

Astronomy

Feb. 01, 2018 Rise Set
Actual Time 7:05 AM -03 8:47 PM -03
Civil Twilight 6:38 AM -03 9:14 PM -03
Nautical Twilight 6:06 AM -03 9:46 PM -03
Astronomical Twilight 5:32 AM -03 10:20 PM -03
Moon 9:50 PM -03 (2/1) 8:08 AM -03 (2/1)
Length of Visible Light 14h 35m
Length of Day
13h 41m
Full, 98% of the Moon is Illuminated
Feb 1
Full
Feb 7
Last Quarter
Feb 15
New
Feb 23
First Quarter
Mar 1
Full

Hourly Weather History & Observations

Time (-03) Temp. Dew Point Humidity Pressure Visibility Wind Dir Wind Speed Gust Speed Precip Events Conditions
12:00 AM 69.8 °F 46.4 °F 43% 29.83 in - SSE 11.5 mph - N/A   Clear
1:00 AM 68.0 °F 44.6 °F 43% 29.86 in - SSE 6.9 mph - N/A   Clear
2:00 AM 66.2 °F 44.6 °F 46% 29.86 in - South 6.9 mph - N/A   Clear
3:00 AM 64 °F 44 °F 37% 29.83 in 6 mi SSE 4.6 mph - -   Partly Cloudy
3:00 AM 64.4 °F 44.6 °F 49% 29.86 in - SSE 4.6 mph - N/A   Clear
4:00 AM 62.6 °F 44.6 °F 52% 29.86 in - South 5.8 mph - N/A   Clear
5:00 AM 62.6 °F 44.6 °F 52% 29.86 in - SSE 3.5 mph - N/A   Clear
6:00 AM 60.8 °F 44.6 °F 55% 29.86 in - Variable 1.2 mph - N/A   Clear
7:00 AM 59.0 °F 44.6 °F 59% 29.86 in - Calm Calm - N/A   Clear
8:00 AM 60.8 °F 44.6 °F 55% 29.89 in - Calm Calm - N/A   Clear
9:00 AM 66 °F 45 °F 35% 29.86 in 6 mi Calm Calm - -   Partly Cloudy
9:00 AM 66.2 °F 44.6 °F 46% 29.89 in - Variable 1.2 mph - N/A   Clear
10:00 AM 73.4 °F 46.4 °F 38% 29.89 in - Variable 2.3 mph - N/A   Clear
11:00 AM 77.0 °F 46.4 °F 34% 29.86 in - Variable 2.3 mph - N/A   Clear
12:00 PM 80.6 °F 46.4 °F 30% 29.86 in - SSW 4.6 mph - N/A   Clear
1:00 PM 84.2 °F 48.2 °F 29% 29.86 in - South 10.4 mph - N/A   Clear
2:00 PM 86.0 °F 48.2 °F 27% 29.83 in - South 13.8 mph - N/A   Clear
3:00 PM 88 °F 45 °F 14% 29.73 in 6 mi SW 16.1 mph - -   Partly Cloudy
3:00 PM 87.8 °F 44.6 °F 22% 29.83 in - SW 16.1 mph - N/A   Clear
4:00 PM 89.6 °F 46.4 °F 22% 29.80 in - SW 16.1 mph - N/A   Clear
5:00 PM 89.6 °F 46.4 °F 22% 29.80 in - SW 18.4 mph - N/A   Clear
6:00 PM 86.0 °F 48.2 °F 27% 29.77 in - SSW 18.4 mph - N/A   Clear
7:00 PM 84.2 °F 50.0 °F 30% 29.77 in - SSW 18.4 mph - N/A   Clear
8:00 PM 82.4 °F 51.8 °F 35% 29.77 in - SSW 12.7 mph - N/A   Clear
9:00 PM 78 °F 52 °F 30% 29.73 in 6 mi SSE 8.1 mph - -   Partly Cloudy
9:00 PM 77.0 °F 51.8 °F 41% 29.80 in - SSE 8.1 mph - N/A   Clear
10:00 PM 73.4 °F 53.6 °F 50% 29.80 in - SSE 11.5 mph - N/A   Clear
11:00 PM 71.6 °F 53.6 °F 53% 29.83 in - SSE 11.5 mph - N/A   Clear